Weather in Lebyazh'ye 1-e

Russia / Kurgan Oblast     55°19′37″N   66°27′24″E
temp.,
°C
wind,
m/s
gust,
m/s
humid.,
%
clouds,
%
prec.,
mm/h
press.,
hPa
HPBL,
m
13 may, thu
thu1323:00+14nne345338 0.0 102654
02:00+13nne0152100 0.0 102610
05:00+13wsw335777 0.0 102639
08:00+18w69445 0.0 1025488
11:00+23wnw793524 0.0 10241767
14:00+26nw893024 0.0 10232388
17:00+26nnw79283 0.0 10222659
20:00+22nw34435 0.0 102344
14 may, fri
fri1423:00+18ne33605 0.0 102531
02:00+15ene33702 0.0 102631
05:00+14ese11735 0.0 102711
08:00+20se11505 0.0 1027351
11:00+24ssw11345 0.0 10271228
14:00+27wsw24305 0.0 10262460
17:00+28w45288 0.0 10242764
20:00+24sw48415 0.0 1024150
15 may, sat
sat1523:00+21sw410455 0.0 1023156
02:00+19sw5144719 0.0 1023311
05:00+18wsw411543 0.1 1023200
08:00+23w46425 0.0 1023320
11:00+28wnw56295 0.0 10221573
14:00+31wnw68245 0.0 10202936
17:00+30wnw782441 0.0 10203131
20:00+25wnw510375 0.0 1019198
16 may, sun
sun1623:00+22w4104279 0.0 1019162
02:00+19wnw355697 0.7 101982
05:00+17wnw356592 0.8 101971
08:00+22nnw34504 0.0 1020375
11:00+27nnw35375 0.0 10201486
14:00+30nw452799 0.0 10192476
17:00+30nw452828 0.0 10182636
20:00+26nw223656 0.0 101813
17 may, mon
mon1723:00+23wsw333963 0.0 101831
02:00+21wsw34435 0.0 101839
05:00+19w34485 0.0 101851
08:00+24wnw463710 0.0 1018320
11:00+30w47255 0.0 10172217
14:00+31w782380 0.0 10163317
17:00+31w78214 0.0 10143588
20:00+25wnw510364 0.0 1014217